[[{"header":{"parameterUnit":"m.s-1","parameterCategory":1,"la1":30.2991,"la2":30.254,"lo1":-89.0895,"lo2":-89.0444,"dy":0.0017,"dx":0.0017,"nx":28,"ny":28,"refTime":"2023-10-18T21:00:00:Z","depth":0,"parameterNumber":2,"parameterNumberName":"U-component_of_WINDS"},"data":[0,0,0,0,0,0,0,0,0,0,0,0,0,0,0,0,0,0,0,0,0,0,0,0,0,0,0,0,0,0,0,0,0,0,0,0,0,0,0,0,0,0,0,0,0,0,0,0,0,0,0,0,0,0,0,0,0,0,2.1655,2.1656,0,2.1718,2.1719,2.1719,2.1685,2.1683,2.1681,2.168,2.1741,2.1744,2.1747,0,0,0,0,0,0,0,0,0,0,0,0,0,2.1501,2.1504,2.1655,2.1656,2.1657,2.1718,2.1719,2.172,2.1685,2.1683,2.1681,2.1679,2.174,2.1744,2.1747,0,0,0,0,0,0,0,0,0,0,0,0,0,2.1566,2.1505,2.1655,2.1647,2.1647,2.1718,2.1719,2.172,2.1686,2.1683,2.168,2.1678,2.1739,2.1743,2.1748,2.1829,0,0,2.1763,2.1765,0,0,0,0,0,0,0,0,2.1562,2.1572,2.1647,2.1648,2.1648,2.1691,2.1687,2.1756,2.1686,2.1671,2.168,2.1677,2.1726,2.1732,2.1749,2.1832,2.1835,2.1763,2.1766,2.1768,2.177,0,0,0,0,0,0,0,2.1558,2.1569,2.168,2.1649,2.1649,2.1639,2.1645,2.17,2.1712,2.1672,2.167,2.1678,2.1726,2.1745,2.175,2.1836,2.1763,2.1767,2.177,2.1772,2.1984,2.1986,0,0,0,0,0,0,2.1554,2.1565,2.1678,2.1682,2.1598,2.1644,2.1651,2.168,2.1711,2.1714,2.168,2.1676,2.1738,2.1745,2.1752,2.1846,2.1768,2.1773,2.1775,2.1981,2.1984,2.1987,0,0,0,0,0,0,2.1551,2.1565,2.1675,2.1623,2.1636,2.1649,2.1682,2.1682,2.1701,2.1717,2.1719,2.1697,2.1736,2.1746,2.181,2.1848,2.1775,2.1779,2.1978,2.1982,2.1986,2.2036,0,0,0,0,0,0,2.1547,2.1564,2.1596,2.1624,2.1639,2.1733,2.1684,2.1685,2.171,2.1705,2.1734,2.1736,2.1735,2.1802,2.1814,2.1853,2.1783,2.1974,2.198,2.1984,2.2031,2.2042,2.205,0,0,0,0,0,2.1542,2.1608,2.1598,2.1612,2.168,2.1736,2.1744,2.1742,2.1713,2.1744,2.1754,2.1735,2.1842,2.1809,2.1822,2.1863,2.1972,2.1978,2.1984,2.2027,2.2039,2.205,0,0,0,0,0,0,2.1584,2.1612,2.1601,2.1679,2.1705,2.173,2.1769,2.1756,2.179,2.1784,2.1779,2.1786,2.1852,2.1864,2.1827,2.1941,2.1902,2.1911,2.193,2.1943,2.1952,2.1946,2.1787,0,0,0,0,0,2.1603,2.1647,2.1668,2.1735,2.1749,2.1757,2.1781,2.1777,2.1803,2.1814,2.1829,2.1854,2.1893,2.1919,2.1956,2.2034,2.2037,2.2068,2.2077,2.2085,2.2092,2.213,2.2143,2.2007,2.2007,2.2007,0,0,2.1641,2.1662,2.169,2.1744,2.1764,2.1807,2.1766,2.1815,2.1846,2.1821,2.1882,2.1894,2.1921,2.1991,2.2023,2.2004,2.2131,2.2093,2.2099,2.2102,2.2138,2.215,2.2162,2.2011,2.2011,2.201,0,0,2.1733,2.1755,2.1811,2.1831,2.1862,2.1866,2.188,2.1906,2.1913,2.1974,2.1955,2.1992,2.206,2.2079,2.2098,2.2195,2.2177,2.2208,2.2257,2.2294,2.2304,2.2314,2.2345,2.2356,2.2215,2.2215,2.2215,0,2.1777,2.1843,2.1841,2.189,2.1913,2.1892,2.1947,2.1967,2.2008,2.2023,2.2002,2.2085,2.2102,2.2175,2.2198,2.2215,2.2228,2.2203,2.2303,2.2313,2.2321,2.2351,2.2363,2.2218,2.2218,2.2218,2.2217,0,2.1893,2.1939,2.198,2.202,2.2047,2.21,2.2103,2.2131,2.2124,2.213,2.2191,2.2211,2.225,2.2268,2.2262,2.2339,2.2325,2.2304,2.2264,2.2337,2.2365,2.2376,2.2223,2.2222,2.2221,2.222,0,0,2.2013,2.205,2.2064,2.208,2.2112,2.2147,2.2196,2.2235,2.2257,2.2286,2.2325,2.2383,2.2362,2.2384,2.238,2.2413,2.2483,2.2387,2.2387,2.2401,2.2565,2.2578,2.2592,2.2473,2.2475,2.2477,2.2561,0,2.2104,2.2191,2.219,2.227,2.231,2.2291,2.2334,2.2357,2.2364,2.2397,2.2405,2.2444,2.2416,2.2428,2.246,2.2468,2.2516,2.2463,2.2507,2.2508,2.2497,2.2606,2.2622,2.27,2.2572,2.2574,2.2575,0,2.2221,2.2253,2.2338,2.236,2.2377,2.2416,2.2449,2.2483,2.2507,2.251,2.2533,2.2523,2.2571,2.2532,2.2596,2.2559,2.2578,2.2584,2.2587,2.2589,2.2544,2.2608,2.2725,2.2736,2.2593,2.2592,2.259,0,2.2295,2.236,2.2418,2.2433,2.2462,2.2488,2.2501,2.2523,2.2546,2.2575,2.2589,2.2623,2.2641,2.2667,2.2666,2.2638,2.273,2.2691,2.273,2.273,2.2748,2.2747,2.2867,2.2766,2.2766,2.2765,2.2765,0,2.2395,2.2447,2.2451,2.2486,2.2542,2.2539,2.2594,2.2604,2.2624,2.2659,2.2645,2.2678,2.2676,2.2709,2.2708,2.2759,2.2768,2.2769,2.2768,2.2769,2.2768,2.2778,2.2772,2.2768,2.2768,2.2767,2.2767,0,2.2487,2.2492,2.2553,2.2575,2.2581,2.2621,2.2639,2.2671,2.2677,2.2721,2.2731,2.2739,2.2777,2.2779,2.2823,2.2822,2.2883,2.2877,2.2875,2.2872,2.291,2.2905,2.3039,2.3055,2.2946,2.2947,2.2948,0,2.2548,2.2587,2.2613,2.2636,2.265,2.2687,2.2709,2.2708,2.2731,2.276,2.2788,2.2825,2.2853,2.2914,2.2923,2.2955,2.2948,2.2993,2.2953,2.2951,2.2944,2.2941,2.2943,2.2999,2.3001,2.3002,2.3002,0,2.2656,2.2656,2.2689,2.2723,2.275,2.2776,2.2801,2.282,2.282,2.2847,2.2885,2.2908,2.2952,2.2987,2.3018,2.3029,2.3015,2.3015,2.3025,2.3025,2.302,2.302,2.2892,2.3012,2.3011,2.301,2.301,2.3009,2.2732,2.2764,2.2787,2.2823,2.2841,2.2864,2.2894,2.2903,2.2935,2.297,2.2968,2.3009,2.303,2.307,2.3084,2.3115,2.3099,2.3115,2.3118,2.3121,2.3124,2.3018,2.3121,2.3121,2.3121,2.312,2.312,0,2.2836,2.2849,2.2883,2.2917,2.2945,2.293,2.2956,2.2979,2.3016,2.3037,2.3066,2.3108,2.3141,2.3152,2.3184,2.3207,2.3201,2.3215,2.3211,2.3214,2.3138,2.3124,2.3219,2.3219,2.3219,2.3219,2.3219,2.3219,2.2893,2.2945,2.2948,2.3008,2.3021,2.3061,2.3077,2.3096,2.3112,2.316,2.3188,2.3195,2.3211,2.3244,2.3273,2.3275,2.3286,2.3302,2.3301,2.323,2.3219,2.321,2.3197,2.3306,2.3306,2.3374,2.3375,2.3376]},{"header":{"parameterUnit":"m.s-1","parameterCategory":1,"la1":30.2991,"la2":30.254,"lo1":-89.0895,"lo2":-89.0444,"dy":0.0017,"dx":0.0017,"nx":28,"ny":28,"refTime":"2023-10-18T21:00:00:Z","depth":0,"parameterNumber":3,"parameterNumberName":"V-component_of_WINDS"},"data":[0,0,0,0,0,0,0,0,0,0,0,0,0,0,0,0,0,0,0,0,0,0,0,0,0,0,0,0,0,0,0,0,0,0,0,0,0,0,0,0,0,0,0,0,0,0,0,0,0,0,0,0,0,0,0,0,0,0,2.0161,2.0163,0,2.0298,2.0299,2.0301,2.0291,2.0289,2.0287,2.0285,2.0424,2.0429,2.0435,0,0,0,0,0,0,0,0,0,0,0,0,0,1.9889,1.9894,2.0161,2.0163,2.0165,2.0297,2.0299,2.0301,2.0292,2.0289,2.0287,2.0284,2.0422,2.0429,2.0435,0,0,0,0,0,0,0,0,0,0,0,0,0,2.0014,1.9896,2.0161,2.0176,2.0179,2.0297,2.0299,2.0302,2.0292,2.0289,2.0286,2.0283,2.042,2.0428,2.0436,2.0548,0,0,2.0462,2.0465,0,0,0,0,0,0,0,0,2.0007,2.0024,2.0172,2.0175,2.0178,2.0274,2.0254,2.0384,2.0293,2.0249,2.0285,2.0282,2.0376,2.0388,2.042,2.0555,2.0561,2.0462,2.0467,2.0471,2.0473,0,0,0,0,0,0,0,1.9999,2.0018,2.0215,2.0174,2.0178,2.0175,2.0189,2.0279,2.0328,2.0253,2.0252,2.0269,2.0378,2.0412,2.0424,2.0563,2.0462,2.047,2.0475,2.0478,2.0791,2.0794,0,0,0,0,0,0,1.9987,2.0011,2.0211,2.0219,2.0084,2.0182,2.0198,2.0247,2.0327,2.0336,2.0271,2.0268,2.04,2.0414,2.0428,2.0562,2.0471,2.0479,2.0484,2.0788,2.0792,2.0795,0,0,0,0,0,0,1.9981,2.0005,2.0205,2.0115,2.014,2.019,2.0244,2.0251,2.0286,2.0341,2.0349,2.0298,2.0398,2.0417,2.0518,2.0567,2.0483,2.049,2.0784,2.0789,2.0793,2.0832,0,0,0,0,0,0,1.9973,2.0003,2.0047,2.0116,2.0145,2.0294,2.0247,2.0256,2.03,2.0297,2.0368,2.0377,2.0397,2.0505,2.0526,2.0577,2.0497,2.078,2.0786,2.0792,2.0826,2.0838,2.0847,0,0,0,0,0,1.9964,2.0053,2.0049,2.0073,2.0202,2.0296,2.0313,2.0334,2.0304,2.0348,2.0383,2.0375,2.0558,2.0516,2.0539,2.0593,2.0777,2.0784,2.0791,2.0822,2.0835,2.0847,0,0,0,0,0,0,1.9989,2.0063,2.0059,2.0174,2.0229,2.0295,2.0351,2.0349,2.0413,2.0407,2.043,2.0447,2.0547,2.058,2.0532,2.0703,2.0663,2.0676,2.0678,2.0692,2.0702,2.0691,2.0504,0,0,0,0,0,2.0008,2.008,2.014,2.0235,2.0263,2.0302,2.0344,2.0355,2.0413,2.0436,2.0479,2.0534,2.0604,2.065,2.0717,2.0831,2.0845,2.0879,2.0889,2.0898,2.0908,2.0967,2.0982,2.082,2.082,2.082,0,0,2.0048,2.0097,2.0141,2.0241,2.0285,2.0357,2.0322,2.04,2.0453,2.0448,2.0545,2.0578,2.0642,2.0748,2.0798,2.0779,2.0956,2.0907,2.0913,2.0919,2.0976,2.0991,2.1005,2.0825,2.0824,2.0823,0,0,2.0158,2.0203,2.0286,2.0329,2.0396,2.0421,2.044,2.0506,2.0527,2.0625,2.0622,2.0684,2.0805,2.0849,2.0887,2.1009,2.1003,2.103,2.1084,2.1141,2.1154,2.1165,2.1206,2.1221,2.104,2.104,2.1041,0,2.0199,2.0308,2.0328,2.0407,2.0449,2.0447,2.0529,2.0571,2.0656,2.0685,2.0663,2.0811,2.0854,2.097,2.0999,2.1031,2.1052,2.1022,2.115,2.1162,2.1173,2.1212,2.1228,2.1043,2.1043,2.1043,2.1042,0,2.0354,2.0429,2.0488,2.0569,2.0618,2.0698,2.0729,2.0776,2.0782,2.0809,2.0906,2.0957,2.1033,2.1061,2.1069,2.1177,2.1163,2.1146,2.1105,2.1191,2.1228,2.1243,2.1047,2.1046,2.1045,2.1045,0,0,2.0486,2.0574,2.0595,2.063,2.0701,2.0759,2.0837,2.0911,2.095,2.1008,2.1073,2.1173,2.1156,2.1199,2.1211,2.1261,2.1351,2.1237,2.1239,2.1255,2.1469,2.1481,2.1498,2.1347,2.135,2.1352,2.1463,0,2.0601,2.074,2.0759,2.0881,2.0949,2.0946,2.1014,2.1064,2.109,2.115,2.1178,2.1248,2.1222,2.1248,2.1297,2.1329,2.1394,2.1322,2.1405,2.1408,2.1389,2.1518,2.1532,2.1634,2.1478,2.1481,2.1482,0,2.0755,2.0815,2.0944,2.1002,2.1031,2.1092,2.1159,2.1217,2.1272,2.1287,2.1334,2.1339,2.1417,2.1374,2.1481,2.1431,2.1466,2.1487,2.1491,2.1499,2.145,2.1528,2.1667,2.1682,2.1506,2.1504,2.1502,0,2.0834,2.0948,2.1039,2.1069,2.114,2.1182,2.1213,2.1266,2.1307,2.1366,2.1393,2.146,2.1496,2.1547,2.1568,2.1535,2.1673,2.1632,2.1686,2.1685,2.1715,2.1713,2.1861,2.174,2.1739,2.1739,2.1739,0,2.096,2.1039,2.1075,2.1131,2.1218,2.1237,2.1322,2.1352,2.1397,2.1457,2.1459,2.1515,2.1541,2.16,2.1617,2.1701,2.1719,2.1731,2.1735,2.1731,2.1729,2.1753,2.1746,2.1743,2.1742,2.1742,2.1741,0,2.1064,2.1092,2.1191,2.1248,2.1264,2.1326,2.1374,2.1427,2.1451,2.1527,2.1546,2.1584,2.1654,2.168,2.1766,2.1777,2.1873,2.1872,2.1855,2.1855,2.1907,2.1901,2.2075,2.2098,2.1963,2.1964,2.1965,0,2.1142,2.1202,2.1265,2.1305,2.1338,2.1403,2.1445,2.1465,2.1509,2.1574,2.1618,2.1687,2.1744,2.1855,2.1889,2.1954,2.1952,2.2009,2.1962,2.1955,2.1951,2.1946,2.1951,2.2017,2.2019,2.202,2.2021,0,2.1277,2.1287,2.1347,2.1412,2.1461,2.1513,2.1564,2.1596,2.1624,2.1672,2.1743,2.1786,2.1872,2.194,2.2005,2.2036,2.2032,2.2035,2.205,2.2046,2.2033,2.2038,2.1877,2.2031,2.203,2.2029,2.2029,2.2028,2.1369,2.1421,2.1472,2.1538,2.1578,2.1624,2.1676,2.1705,2.1765,2.1836,2.1844,2.1919,2.1969,2.2056,2.2089,2.2147,2.2132,2.2155,2.2161,2.2166,2.2168,2.2024,2.216,2.2159,2.2159,2.2159,2.2159,0,2.1502,2.1534,2.1594,2.1664,2.1715,2.1707,2.1761,2.1804,2.187,2.1917,2.1972,2.2051,2.2116,2.2154,2.2219,2.2258,2.2257,2.2274,2.227,2.2277,2.2179,2.2159,2.2273,2.2273,2.2273,2.2272,2.2272,2.2272,2.1577,2.1662,2.1678,2.1782,2.1813,2.1887,2.1918,2.1959,2.1996,2.2085,2.2139,2.2163,2.2205,2.2272,2.233,2.234,2.2363,2.238,2.2388,2.2296,2.2284,2.2273,2.2253,2.2385,2.2386,2.248,2.2481,2.2482]}]]